Theta_e
305 304 305 306 305 304 303 300 296 308 312 304 301 299 301 301 304 307 304 306 303 302 303 300 300 301 304 307 307 303 305 306 299 300 304 305 303 301 302 297 294 295 295 295
303 303 304 305 305 304 301 298 298 310 309 300 300 302 302 305 304 305 304 303 306 306 304 303 303 303 306 308 307 306 307 303 297 298 302 304 302 300 299 300 299 296 293 296
303 303 304 304 305 304 302 301 300 306 306 304 300 299 300 302 308 307 308 306 309 307 303 305 304 303 305 308 309 310 312 302 302 296 300 303 300 300 300 301 298 296 296 298
303 303 303 303 304 304 302 300 298 298 297 301 299 299 299 299 300 304 304 304 306 305 303 303 302 303 304 305 310 306 311 302 300 299 301 302 301 301 299 299 301 297 299 298
303 304 302 303 304 303 299 295 292 296 298 299 298 298 298 298 299 301 301 303 304 305 305 307 304 305 304 305 305 305 305 301 302 299 301 301 299 301 301 301 300 299 299 299
303 303 303 303 305 302 295 296 298 295 296 297 297 297 297 298 300 303 305 303 303 305 304 306 308 308 309 309 307 304 305 303 300 295 299 299 295 299 300 300 302 301 298 304
303 303 302 302 303 302 298 297 295 292 290 293 296 294 297 297 299 297 302 305 306 307 309 310 311 309 308 308 305 309 302 301 300 295 297 289 300 304 303 302 302 303 303 304
303 303 302 302 302 304 299 300 296 291 288 292 291 295 296 297 300 299 301 305 309 309 308 304 302 302 303 304 305 305 308 304 298 298 294 296 300 302 301 300 301 306 305 303
303 303 303 302 303 303 300 299 300 294 289 290 294 294 296 295 296 299 302 306 308 311 307 304 297 295 300 298 301 305 305 308 302 296 293 290 300 304 305 304 297 306 307 304
303 303 303 303 302 302 300 298 300 295 290 295 297 294 294 298 296 294 298 297 302 309 306 301 298 298 301 298 298 300 301 301 299 295 296 298 306 304 306 295 299 306 308 307
303 303 303 303 302 302 301 297 299 296 289 292 295 295 293 294 295 291 296 296 301 306 301 302 301 298 301 300 302 302 301 299 297 296 295 293 307 305 301 308 307 309 308 307
303 303 302 302 302 303 302 293 298 300 291 291 297 298 298 297 296 294 296 295 294 303 302 300 300 299 300 299 296 302 300 305 303 304 305 310 310 310 311 311 310 309 309 308
303 302 302 302 303 303 302 298 297 294 289 289 291 293 299 301 300 301 292 294 299 303 304 303 304 298 299 295 297 300 303 304 304 303 308 307 310 311 311 310 310 311 311 308
302 302 302 302 302 303 302 297 299 296 290 284 288 298 296 301 301 300 300 298 300 301 303 299 301 300 300 299 301 303 305 305 303 303 305 308 311 312 312 309 309 308 308 308
302 302 302 302 302 302 302 300 299 299 290 284 286 292 296 299 298 296 299 298 296 294 295 297 300 305 301 300 300 301 306 305 303 304 313 313 312 316 312 309 309 309 307 305
302 303 302 302 301 300 297 290 298 297 297 289 284 294 295 298 299 297 296 297 297 296 294 296 302 305 304 300 298 303 307 309 310 310 313 312 312 314 312 311 310 309 309 309
302 302 302 301 301 299 292 290 297 299 298 289 286 288 295 297 299 297 295 297 296 296 295 298 302 304 304 302 299 304 305 307 309 310 312 310 311 310 310 310 309 308 308 308
302 302 301 301 301 299 294 298 300 301 293 290 285 286 290 297 296 295 298 293 296 297 298 300 299 300 301 296 303 307 306 309 308 310 311 312 313 310 310 309 307 306 305 304
302 301 300 299 295 291 293 300 300 300 294 286 287 283 284 296 293 296 299 299 292 300 296 297 300 296 294 299 303 305 308 308 309 310 309 309 311 309 308 308 307 307 305 304
301 298 292 287 292 297 299 296 290 290 291 289 284 291 287 292 291 291 294 300 296 293 297 300 296 294 301 304 304 306 305 306 310 307 306 307 307 308 308 308 309 309 306 305
295 291 288 295 297 297 292 286 285 285 282 288 287 288 286 293 287 288 295 293 297 291 295 295 294 293 299 304 305 306 307 307 310 313 313 314 315 310 308 307 308 308 306 305
295 293 294 296 292 289 285 284 285 283 281 288 287 289 289 292 294 290 295 291 294 289 298 294 291 297 301 302 303 305 307 307 306 310 311 312 312 311 310 308 308 308 308 306
297 292 288 287 286 280 280 278 282 283 288 290 290 288 290 291 292 290 290 288 288 299 292 290 296 300 302 304 306 306 307 305 306 307 311 311 310 309 309 308 309 308 306 306
288 283 278 281 280 282 284 285 285 289 291 291 292 289 290 293 288 290 288 293 294 286 284 289 298 301 302 304 305 306 306 306 305 306 309 310 309 308 309 309 308 307 306 306
285 284 278 281 286 289 288 289 289 290 293 292 291 292 291 290 288 291 290 287 285 289 289 296 299 303 303 303 304 304 304 307 307 306 308 310 309 308 308 309 309 309 307 306
287 285 282 286 285 286 288 288 288 294 295 295 293 288 287 286 289 287 286 285 285 291 297 300 303 303 303 304 305 305 304 306 309 309 308 310 309 309 309 308 308 308 307 306
285 285 288 286 286 286 288 289 290 296 293 287 288 286 284 291 286 286 290 288 294 299 301 302 303 303 304 305 306 305 305 307 309 309 309 310 311 310 307 306 307 308 308 308
Wind_Speed
25 27 28 30 31 35 8 5 3 3 3 2 2 3 4 2 5 3 2 2 6 8 3 6 11 12 4 2 12 11 4 4 5 2 3 1 2 3 4 3 4 0 2 5
25 27 28 29 30 29 5 6 4 2 3 3 2 3 3 3 4 6 4 6 5 3 4 4 5 6 2 5 9 12 10 2 6 3 4 3 3 4 5 6 2 6 6 5
23 26 27 29 30 29 3 4 4 3 3 3 4 5 2 4 2 4 4 7 7 8 4 1 6 5 1 3 4 6 7 5 7 12 8 5 6 7 7 4 4 5 9 12
23 24 26 29 30 30 3 4 4 3 5 3 7 4 4 4 4 3 3 3 10 8 6 3 3 3 4 3 7 4 3 6 3 4 7 4 6 10 10 9 6 8 12 8
21 21 24 25 28 26 4 4 5 6 5 8 7 4 2 3 6 3 1 3 14 6 6 6 9 9 5 5 4 3 1 5 4 4 4 4 3 5 8 9 7 10 9 12
18 20 21 22 22 16 5 3 2 3 5 6 4 4 7 4 9 4 6 7 9 5 5 13 6 8 4 4 7 4 2 8 4 4 2 4 3 7 6 3 5 5 8 7
16 18 19 18 18 15 3 2 2 3 4 5 4 11 8 12 9 7 8 10 5 5 12 8 8 14 12 9 8 4 6 4 3 6 4 5 1 1 2 6 6 8 5 2
16 15 16 16 15 15 5 2 3 2 5 6 9 10 8 11 10 5 6 4 4 10 5 3 6 4 5 5 9 8 1 7 5 5 4 3 4 5 6 6 5 9 8 5
15 15 15 14 12 14 5 1 2 2 4 1 6 8 9 6 6 6 4 4 8 3 1 2 3 7 5 6 5 4 9 7 5 4 4 6 2 2 3 3 7 7 7 9
14 14 14 12 12 12 3 1 3 2 4 4 3 3 5 5 3 5 5 10 6 4 2 1 1 2 1 9 12 8 5 4 5 5 3 3 6 6 6 4 1 7 9 11
13 13 13 12 12 10 5 3 1 3 4 11 8 8 9 6 3 4 7 7 1 3 3 2 3 2 2 1 2 6 8 8 4 4 3 6 8 7 6 2 3 6 9 11
12 12 10 11 10 10 6 2 2 0 5 7 7 14 16 17 15 6 3 5 5 3 3 2 2 3 2 4 2 2 5 3 7 8 6 2 10 1 4 4 4 6 10 10
12 12 10 11 11 10 6 3 1 3 4 8 5 6 3 9 16 14 6 4 4 0 3 2 2 6 2 6 5 2 3 3 3 4 6 6 6 5 3 5 2 6 7 13
14 12 12 11 12 11 8 3 1 1 3 6 6 5 10 6 7 13 19 9 0 5 2 3 3 3 1 1 2 4 1 7 5 0 2 2 7 8 7 8 7 10 10 9
15 13 12 12 11 11 5 3 4 7 5 4 9 17 13 5 12 16 15 14 11 4 3 3 3 2 2 1 1 3 6 7 6 4 9 7 4 11 12 13 13 13 14 12
15 15 12 10 9 2 2 2 1 4 3 3 6 5 7 7 5 8 12 10 7 4 4 4 4 2 3 3 3 2 6 5 2 2 2 3 4 9 11 11 12 12 11 12
15 15 10 10 9 3 3 2 3 7 2 3 6 6 4 5 3 3 4 8 4 4 3 4 3 2 4 2 3 4 1 6 4 2 7 4 6 6 11 10 11 10 10 11
14 13 8 9 9 1 5 6 12 10 3 3 5 6 5 4 2 2 4 5 5 6 4 2 4 3 3 5 7 9 2 1 5 5 3 5 11 13 12 13 14 13 12 11
12 7 2 1 3 3 3 5 6 4 3 3 3 3 4 6 2 2 4 4 5 3 6 5 5 6 9 6 9 9 6 2 1 6 1 4 8 12 14 15 15 14 13 12
6 3 2 3 4 3 6 4 3 4 3 3 5 2 5 4 4 3 3 2 4 6 7 5 6 10 6 6 7 6 6 1 8 8 5 5 5 11 15 17 14 13 14 13
2 4 4 1 4 3 3 3 4 4 4 5 4 7 10 3 5 3 2 3 4 5 5 6 5 4 10 12 12 12 11 9 10 11 6 9 8 15 14 13 12 13 15 13
4 3 1 1 2 2 4 3 4 5 5 4 4 4 6 3 3 4 3 3 3 4 3 4 4 3 4 2 5 10 12 9 11 10 13 7 7 11 12 13 14 14 13 13
2 1 1 2 2 5 5 5 3 4 4 4 4 3 3 3 3 4 3 4 4 2 2 3 3 3 3 2 3 3 4 9 12 11 9 7 7 9 12 13 12 14 13 13
2 4 4 4 4 5 3 3 4 3 6 4 5 3 4 3 4 3 5 2 2 4 4 4 2 4 3 3 4 5 5 4 9 12 10 11 11 11 12 13 15 15 14 14
2 2 4 6 4 3 5 5 4 6 6 5 3 3 2 4 4 4 2 4 5 4 4 3 3 2 3 4 5 5 5 5 4 8 10 12 12 13 13 13 14 14 14 14
2 4 4 5 4 6 4 5 6 2 3 3 3 2 4 5 4 5 6 4 5 3 1 2 3 4 4 5 5 5 6 6 5 6 9 10 14 15 14 14 14 14 15 15
3 4 4 5 6 7 6 3 3 1 3 2 4 3 2 1 3 4 4 3 1 2 2 2 4 6 8 7 7 7 6 7 7 6 11 12 11 14 15 15 13 12 12 12
Wind_Direction
355 355 351 349 349 346 3 335 316 49 192 250 307 215 208 237 247 203 244 226 268 259 242 197 196 200 214 154 155 175 155 109 142 149 4 320 78 140 151 204 188 184 300 282
355 356 354 349 350 355 323 341 294 333 265 266 256 286 263 252 240 247 232 252 242 220 234 206 192 190 125 170 174 160 176 125 128 120 151 151 199 124 105 99 102 193 261 271
353 355 355 352 349 350 324 316 330 335 36 22 342 349 353 287 318 265 250 248 254 271 243 252 172 160 117 151 157 67 107 128 187 197 195 138 171 166 169 172 175 209 231 272
352 355 357 355 351 345 284 6 46 24 338 4 334 311 326 304 315 328 285 243 230 220 199 165 175 159 147 132 157 98 170 137 135 97 126 139 144 172 177 208 226 229 273 239
349 354 358 359 357 347 64 7 4 346 296 303 307 336 31 330 331 283 327 342 331 288 209 191 189 174 214 173 150 139 150 122 140 113 118 130 181 200 213 234 240 248 259 260
346 354 357 1 3 5 26 13 314 295 304 332 315 28 341 330 340 268 282 342 322 304 353 310 312 112 34 148 149 123 57 137 127 129 118 123 252 239 212 229 225 260 245 295
345 348 354 358 2 20 346 356 286 336 297 321 345 326 309 299 311 286 302 310 306 21 318 268 94 73 84 68 56 90 126 72 41 130 170 222 92 179 311 263 261 219 248 257
341 344 351 351 360 5 3 326 333 341 293 306 303 338 315 313 301 260 268 288 350 310 309 209 150 128 162 74 45 49 111 125 104 147 177 323 237 199 182 196 243 204 202 156
338 341 342 348 357 350 5 12 304 303 309 269 343 316 310 320 329 299 271 343 314 316 326 24 200 178 161 166 119 46 83 79 111 160 173 216 196 165 195 169 267 179 178 167
328 332 333 341 348 352 17 329 356 264 276 282 319 294 323 323 320 290 308 342 339 341 210 126 237 194 284 165 161 157 114 67 143 137 179 249 236 155 160 200 20 162 181 167
317 320 327 333 335 342 7 332 331 0 284 283 258 269 266 284 282 307 352 309 153 315 211 193 169 247 153 189 136 171 156 153 150 125 166 246 147 143 208 130 126 163 173 174
307 309 314 320 325 332 343 287 187 271 243 275 299 266 263 254 255 287 250 309 296 314 282 264 72 253 221 93 250 288 183 175 169 187 195 81 189 135 131 154 150 174 170 169
299 302 302 306 308 309 312 282 247 292 286 277 264 255 259 240 236 227 240 231 282 244 353 312 290 240 128 151 244 253 214 182 142 148 185 208 198 194 182 185 206 155 152 159
295 291 295 291 298 307 304 269 275 202 284 279 281 307 278 256 226 206 216 242 28 328 317 290 271 262 242 192 119 215 116 163 148 252 240 253 239 219 180 155 139 133 134 156
289 285 285 282 290 309 302 264 238 233 223 299 293 297 280 261 234 230 209 215 239 270 296 266 251 266 242 28 305 186 191 161 178 198 196 192 195 184 169 158 166 158 145 143
280 277 276 284 285 331 304 277 100 189 184 257 286 312 284 300 254 209 208 197 197 217 218 223 247 211 239 237 219 257 208 206 295 305 192 149 58 143 160 161 161 157 155 153
272 272 261 270 275 196 233 298 109 147 160 273 283 280 274 305 283 155 159 184 188 209 225 234 257 194 227 237 227 135 149 212 226 244 147 134 184 161 154 138 138 132 126 134
262 265 251 270 278 207 257 254 241 229 247 258 272 275 287 7 296 209 164 153 195 193 238 208 215 164 229 239 236 271 238 160 197 192 247 324 120 128 136 138 143 145 144 140
242 237 274 138 210 221 224 263 190 158 212 262 244 271 304 349 319 289 192 198 178 170 216 211 192 194 221 196 206 230 241 244 264 144 108 157 157 148 152 155 162 159 158 158
166 126 182 224 204 242 224 204 146 187 214 231 250 238 260 328 348 318 285 207 228 188 199 152 220 232 232 207 210 236 268 341 159 147 178 159 167 174 174 184 176 172 162 155
127 181 215 283 299 192 203 214 201 185 230 215 245 246 246 230 260 293 263 302 260 223 153 206 197 221 217 227 246 253 247 230 209 227 295 216 197 177 177 178 174 161 158 163
173 149 109 230 214 223 251 219 178 216 240 193 212 221 206 214 220 238 225 266 274 231 136 207 203 223 187 205 247 259 265 243 235 233 242 253 219 184 174 169 167 162 153 147
90 72 142 207 174 236 236 212 193 224 205 200 205 214 220 170 213 240 247 240 248 293 216 234 235 103 107 37 341 344 317 237 231 225 219 199 184 176 171 164 160 149 150 154
163 155 189 240 188 234 248 275 312 332 288 261 258 244 208 179 190 233 238 177 197 211 199 226 122 139 56 18 10 7 345 319 241 219 192 190 179 171 172 167 157 152 154 158
155 170 225 227 245 225 239 243 248 231 237 275 257 216 220 185 244 210 289 212 230 231 193 191 129 356 340 333 336 337 331 325 292 239 201 183 170 168 166 164 162 156 149 157
186 227 246 233 266 260 259 270 279 264 250 281 203 214 199 214 227 201 218 234 218 162 125 111 303 309 302 292 303 302 303 308 294 253 220 189 171 170 164 157 159 158 158 158
240 240 231 264 286 279 280 262 274 270 282 319 276 226 215 100 221 233 206 246 20 23 330 324 303 301 302 306 299 285 285 296 288 244 204 191 169 150 147 156 159 156 159 156